Home   Weather   Besançon   Past weeks

Flag for France Past Weather in Besançon, Franche-Comté, France — Yesterday and Last 2 Weeks

Now
59 °F

Clear.


Feels Like: 58 °F
Forecast: 50 / 68 °F
Wind: 8 mph from North

Location: Dole Tavaux

Current Time: Sep 26, 2016 at 7:35:03 AM

Latest Report: Sep 26, 2016 at 7:00 AM


Visibility: 10 mi

Pressure: 30.18 "Hg

Humidity: 82%

Dew Point: 54 °F

Location of BesançonLocation

Past Weather in Besançon — Graph

°F

Besançon Temperature Yesterday

Maximum temperature yesterday: 77 °F (at 5:00 PM)
Minimum temperature yesterday: 50 °F (at 7:30 AM)
Average temperature yesterday: 64 °F

High & Low Weather Summary for the Past Weeks

 TemperatureHumidityPressure
High90 °F (Sep 13, 4:00 PM)100% (Sep 15, 8:30 AM)30.30 "Hg (Sep 15, 8:30 AM)
Low46 °F (Sep 22, 5:30 AM)33% (Sep 13, 4:00 PM)29.77 "Hg (Sep 14, 8:00 PM)
Average63 °F78%30.05 "Hg
* Reported Sep 11 6:00 AM — Sep 26 6:30 AM, Besançon, Weather by CustomWeather, © 2016

Note: Actual official high and low records may vary slightly from our data, if they occured in-between our weather recording intervals... More about our weather records

Advertising

Besançon Weather History for the Previous 24 Hours

Scroll right to see more
 ConditionsComfort  
Time TempWeatherWind HumidityBarometerVisibility
6:30 AM
Mon, Sep 26
59 °FClear.8 mph88%30.18 "Hg10 mi
6:00 AM59 °FOvercast.9 mph88%30.18 "HgN/A
5:30 AM59 °FMostly cloudy.9 mph88%30.18 "HgN/A
5:00 AM59 °FOvercast.9 mph88%30.18 "HgN/A
4:30 AM61 °FMostly cloudy.8 mph83%30.18 "HgN/A
4:00 AM61 °FMostly cloudy.8 mph83%30.18 "HgN/A
3:30 AM61 °FMostly cloudy.8 mph83%30.21 "HgN/A
3:00 AM61 °FPassing clouds.7 mph88%30.21 "HgN/A
2:30 AM61 °FPassing clouds.5 mph88%30.21 "HgN/A
2:00 AM61 °FMostly cloudy.6 mph88%30.21 "HgN/A
1:30 AM63 °FPassing clouds.6 mph83%30.21 "HgN/A
1:00 AM63 °FOvercast.2 mph83%30.21 "HgN/A
12:30 AM63 °FOvercast.2 mph83%30.21 "HgN/A
12:00 AM63 °FMostly cloudy.3 mph83%30.21 "HgN/A
11:30 PM
Sun, Sep 25
63 °FOvercast.5 mph83%30.21 "HgN/A
11:00 PM63 °FOvercast.5 mph83%30.21 "HgN/A
10:30 PM63 °FPassing clouds.7 mph83%30.18 "HgN/A
10:00 PM63 °FPassing clouds.5 mph83%30.18 "HgN/A
9:30 PM64 °FClear.5 mph78%30.18 "Hg10 mi
9:00 PM64 °FPassing clouds.7 mph78%30.15 "HgN/A
8:30 PM66 °FPassing clouds.10 mph73%30.15 "HgN/A
8:00 PM68 °FPassing clouds.9 mph64%30.15 "HgN/A
7:30 PM70 °FSunny.6 mph64%30.12 "Hg10 mi
7:00 PM72 °FPassing clouds.5 mph57%30.12 "HgN/A
6:30 PM73 °FPassing clouds.5 mph53%30.09 "HgN/A
6:00 PM75 °FPassing clouds.6 mph50%30.09 "HgN/A
5:30 PM75 °FPassing clouds.9 mph50%30.09 "HgN/A
5:00 PM77 °FPassing clouds.9 mph47%30.09 "HgN/A
4:30 PM75 °FPassing clouds.10 mph47%30.09 "HgN/A
4:00 PM75 °FPassing clouds.10 mph50%30.09 "HgN/A
3:30 PM75 °FPassing clouds.12 mph50%30.09 "HgN/A
3:00 PM75 °FPassing clouds.12 mph50%30.09 "HgN/A
2:30 PM75 °FPassing clouds.14 mph50%30.09 "HgN/A
2:00 PM75 °FPassing clouds.14 mph54%30.09 "HgN/A
1:30 PM73 °FPassing clouds.15 mph53%30.09 "HgN/A
1:00 PM73 °FPassing clouds.14 mph57%30.09 "HgN/A
12:30 PM72 °FPassing clouds.16 mph61%30.12 "HgN/A
12:00 PM72 °FPassing clouds.22 mph57%30.12 "HgN/A
11:30 AM72 °FPassing clouds.16 mph61%30.12 "HgN/A
11:00 AM70 °FPassing clouds.16 mph64%30.12 "HgN/A
10:30 AM68 °FPassing clouds.9 mph69%30.12 "HgN/A
10:00 AM64 °FPassing clouds.7 mph83%30.12 "HgN/A
9:30 AM61 °FSunny.3 mph88%30.12 "Hg10 mi
9:00 AM57 °FSunny.3 mph88%30.12 "Hg10 mi
8:30 AM55 °FSunny.3 mph88%30.12 "Hg10 mi
8:00 AM52 °FClear.5 mph100%30.12 "Hg10 mi
7:30 AM50 °FClear.5 mph100%30.12 "Hg4 mi
7:00 AM52 °FClear.5 mph94%30.12 "Hg5 mi
Weather by CustomWeather, © 2016

See weather overviewHow to use our weather pages